DWI2363 KEWR-MDSD

Flight info

Callsign DWI2363
Flight time N/A
Altitude 36000
Route ELVAE DCT NECCK DCT WHITE Q409 CRPLR DCT ECG/N0457F350 AR8 OXANA/M079F350 L452 WILYY/M079F370 L452 LNHOM/N0460F370 L452 SLUKA/N0458F360 DCT POKEG UT17 KOBET DCT KERSO
Aircraft B38M/M-SDE1FGHILORVWXY/HB1

Departure

Time 2026-05-08 01:06
Airport Newark Liberty International Airport (KEWR)

Arrival

Time N/A
Airport Las Américas International Airport (MDSD)
Time Latitude Longitude Altitude Speed Heading
2026-05-08 00:36 40.69132 -74.17418 20 ft 0 kts 24°
2026-05-08 00:53 40.69118 -74.17429 22 ft 4 kts 42°
2026-05-08 00:53 40.69099 -74.17445 21 ft 4 kts 31°
2026-05-08 00:53 40.69092 -74.17451 20 ft 4 kts 53°
2026-05-08 00:54 40.69091 -74.17477 21 ft 4 kts 113°
2026-05-08 00:54 40.69095 -74.17489 20 ft 4 kts 116°
2026-05-08 00:54 40.69100 -74.17503 20 ft 0 kts 116°
2026-05-08 00:58 40.69096 -74.17490 20 ft 4 kts 116°
2026-05-08 00:58 40.69077 -74.17439 28 ft 8 kts 117°
2026-05-08 00:59 40.69043 -74.17350 21 ft 13 kts 116°
2026-05-08 00:59 40.69003 -74.17243 20 ft 13 kts 114°
2026-05-08 00:59 40.68983 -74.17202 20 ft 0 kts 143°
2026-05-08 00:59 40.68978 -74.17199 20 ft 2 kts 157°
2026-05-08 01:00 40.68966 -74.17200 21 ft 2 kts 195°
2026-05-08 01:00 40.68940 -74.17215 23 ft 6 kts 206°
2026-05-08 01:00 40.68933 -74.17219 22 ft 7 kts 206°
2026-05-08 01:00 40.68874 -74.17257 23 ft 12 kts 205°
2026-05-08 01:01 40.68777 -74.17316 27 ft 18 kts 205°
2026-05-08 01:01 40.68723 -74.17350 26 ft 20 kts 207°
2026-05-08 01:01 40.68587 -74.17437 27 ft 22 kts 207°
2026-05-08 01:02 40.68434 -74.17534 26 ft 27 kts 206°
2026-05-08 01:02 40.68353 -74.17588 26 ft 16 kts 206°
2026-05-08 01:02 40.68275 -74.17637 21 ft 17 kts 206°
2026-05-08 01:02 40.68178 -74.17698 23 ft 14 kts 205°
2026-05-08 01:03 40.68141 -74.17722 21 ft 13 kts 206°
2026-05-08 01:03 40.68059 -74.17775 21 ft 13 kts 206°
2026-05-08 01:03 40.67980 -74.17826 21 ft 11 kts 206°
2026-05-08 01:03 40.67937 -74.17854 22 ft 10 kts 205°
2026-05-08 01:04 40.67881 -74.17889 23 ft 9 kts 205°
2026-05-08 01:04 40.67819 -74.17928 24 ft 11 kts 206°
2026-05-08 01:04 40.67715 -74.17993 22 ft 13 kts 205°
2026-05-08 01:04 40.67631 -74.18040 22 ft 13 kts 182°
2026-05-08 01:05 40.67569 -74.17953 24 ft 13 kts 77°
2026-05-08 01:05 40.67609 -74.17900 23 ft 11 kts 30°
2026-05-08 01:05 40.67683 -74.17846 20 ft 15 kts 28°
2026-05-08 01:05 40.67996 -74.17651 18 ft 87 kts 25°
2026-05-08 01:06 40.68747 -74.17178 26 ft 151 kts 26°
2026-05-08 01:06 40.69841 -74.16478 167 ft 193 kts 26°
2026-05-08 01:06 40.71123 -74.15609 750 ft 221 kts 27°
2026-05-08 01:06 40.72466 -74.14444 1195 ft 232 kts 39°
2026-05-08 01:07 40.73679 -74.13029 1396 ft 233 kts 41°
2026-05-08 01:07 40.74877 -74.11589 1667 ft 235 kts 41°
2026-05-08 01:07 40.76161 -74.10103 2243 ft 254 kts 37°
2026-05-08 01:07 40.77702 -74.08977 3300 ft 251 kts 17°
2026-05-08 01:08 40.79386 -74.08603 4247 ft 253 kts 357°
2026-05-08 01:08 40.81121 -74.09048 5123 ft 255 kts 334°
2026-05-08 01:08 40.82559 -74.10408 5839 ft 250 kts 308°
2026-05-08 01:08 40.83383 -74.12355 5658 ft 240 kts 281°
2026-05-08 01:09 40.83389 -74.14445 5694 ft 220 kts 259°
2026-05-08 01:09 40.83064 -74.16385 5510 ft 212 kts 255°
2026-05-08 01:09 40.82443 -74.18139 5450 ft 219 kts 232°
2026-05-08 01:09 40.81240 -74.19387 5481 ft 225 kts 209°
2026-05-08 01:10 40.79810 -74.20308 5632 ft 231 kts 207°
2026-05-08 01:10 40.78349 -74.21214 5836 ft 233 kts 207°
2026-05-08 01:10 40.76870 -74.22123 6082 ft 239 kts 207°
2026-05-08 01:10 40.75347 -74.23051 6828 ft 245 kts 207°
2026-05-08 01:11 40.73758 -74.24004 7433 ft 260 kts 207°
2026-05-08 01:11 40.72053 -74.25014 8069 ft 272 kts 207°
2026-05-08 01:11 40.70326 -74.26017 8969 ft 273 kts 208°
2026-05-08 01:11 40.68564 -74.27016 9809 ft 278 kts 207°
2026-05-08 01:12 40.66780 -74.27998 10608 ft 278 kts 208°
2026-05-08 01:12 40.64978 -74.28956 11489 ft 277 kts 207°
2026-05-08 01:12 40.63176 -74.29880 12358 ft 277 kts 207°
2026-05-08 01:12 40.61399 -74.30753 13208 ft 276 kts 207°
2026-05-08 01:13 40.59431 -74.31125 13889 ft 300 kts 182°
2026-05-08 01:13 40.57306 -74.30635 14240 ft 314 kts 184°
2026-05-08 01:13 40.55126 -74.30484 14496 ft 326 kts 186°
2026-05-08 01:13 40.52795 -74.30309 14775 ft 341 kts 185°
2026-05-08 01:14 40.50383 -74.30100 15185 ft 349 kts 184°
2026-05-08 01:14 40.47967 -74.29872 15860 ft 350 kts 184°
2026-05-08 01:14 40.45517 -74.29632 16431 ft 353 kts 184°
2026-05-08 01:14 40.43058 -74.29386 17053 ft 355 kts 184°
2026-05-08 01:15 40.40592 -74.29138 17637 ft 357 kts 184°
2026-05-08 01:15 40.38105 -74.28887 18186 ft 360 kts 184°
2026-05-08 01:15 40.35606 -74.28636 18641 ft 363 kts 184°
2026-05-08 01:15 40.33096 -74.28383 19102 ft 366 kts 185°
2026-05-08 01:16 40.30518 -74.28124 19565 ft 368 kts 185°
2026-05-08 01:16 40.27945 -74.27864 20007 ft 371 kts 185°
2026-05-08 01:16 40.25357 -74.27604 20447 ft 374 kts 185°
2026-05-08 01:16 40.22790 -74.27346 20873 ft 377 kts 185°
2026-05-08 01:17 40.20167 -74.27082 21300 ft 379 kts 185°
2026-05-08 01:17 40.17520 -74.26816 21736 ft 382 kts 185°
2026-05-08 01:17 40.14857 -74.26549 22159 ft 385 kts 185°
2026-05-08 01:17 40.12182 -74.26281 22592 ft 388 kts 185°
2026-05-08 01:18 40.09477 -74.26010 22943 ft 391 kts 185°
2026-05-08 01:18 40.06762 -74.25737 22888 ft 390 kts 185°
2026-05-08 01:18 40.04057 -74.25476 22895 ft 388 kts 187°
2026-05-08 01:18 40.01454 -74.25847 22889 ft 368 kts 205°
2026-05-08 01:19 39.99173 -74.27204 22897 ft 358 kts 218°
2026-05-08 01:19 39.97084 -74.28912 22891 ft 359 kts 219°
2026-05-08 01:19 39.94996 -74.30735 23164 ft 359 kts 220°
2026-05-08 01:19 39.92945 -74.32601 23588 ft 361 kts 221°
2026-05-08 01:20 39.90879 -74.34518 23904 ft 364 kts 222°
2026-05-08 01:20 39.88823 -74.36448 24313 ft 365 kts 222°
2026-05-08 01:20 39.87797 -74.37416 24492 ft 366 kts 222°
2026-05-08 01:20 39.85859 -74.39251 24654 ft 368 kts 223°
2026-05-08 01:21 39.83808 -74.41196 25027 ft 369 kts 223°
2026-05-08 01:21 39.81772 -74.43179 25434 ft 366 kts 227°
2026-05-08 01:21 39.79964 -74.45529 25680 ft 367 kts 231°
2026-05-08 01:21 39.78166 -74.47910 26076 ft 368 kts 231°
2026-05-08 01:22 39.76370 -74.50290 26447 ft 369 kts 231°
2026-05-08 01:22 39.74562 -74.52687 26769 ft 372 kts 231°
2026-05-08 01:22 39.72750 -74.55088 27133 ft 373 kts 231°
2026-05-08 01:22 39.70925 -74.57505 27482 ft 375 kts 231°
2026-05-08 01:23 39.69096 -74.59925 27809 ft 376 kts 232°
2026-05-08 01:23 39.67259 -74.62354 28157 ft 378 kts 232°
2026-05-08 01:23 39.65427 -74.64773 28482 ft 379 kts 232°
2026-05-08 01:23 39.63574 -74.67219 28787 ft 381 kts 232°
2026-05-08 01:24 39.61717 -74.69668 29115 ft 382 kts 232°
2026-05-08 01:24 39.59870 -74.72103 29414 ft 384 kts 232°
2026-05-08 01:24 39.57991 -74.74577 29773 ft 384 kts 232°
2026-05-08 01:24 39.56113 -74.77046 30201 ft 382 kts 232°
2026-05-08 01:25 39.54255 -74.79489 30588 ft 380 kts 232°
2026-05-08 01:25 39.52395 -74.81933 30913 ft 379 kts 232°
2026-05-08 01:25 39.51510 -74.83095 31078 ft 379 kts 232°
2026-05-08 01:25 39.49682 -74.85492 31405 ft 378 kts 233°
2026-05-08 01:26 39.47838 -74.87910 31733 ft 377 kts 233°
2026-05-08 01:26 39.46001 -74.90316 32068 ft 376 kts 233°
2026-05-08 01:26 39.44156 -74.92730 32407 ft 375 kts 233°
2026-05-08 01:26 39.42326 -74.95123 32738 ft 374 kts 233°
2026-05-08 01:27 39.40500 -74.97510 33033 ft 373 kts 233°
2026-05-08 01:27 39.38675 -74.99893 33351 ft 373 kts 233°
2026-05-08 01:27 39.36839 -75.02287 33665 ft 372 kts 233°
2026-05-08 01:27 39.35025 -75.04653 33951 ft 371 kts 233°
2026-05-08 01:28 39.33199 -75.07030 34180 ft 371 kts 233°
2026-05-08 01:28 39.31384 -75.09395 34381 ft 372 kts 233°
2026-05-08 01:28 39.29493 -75.11707 34573 ft 375 kts 230°
2026-05-08 01:28 39.27566 -75.13948 34775 ft 375 kts 231°
2026-05-08 01:29 39.25618 -75.16228 34958 ft 376 kts 231°
2026-05-08 01:29 39.23683 -75.18497 35148 ft 376 kts 231°
2026-05-08 01:29 39.21744 -75.20773 35344 ft 377 kts 231°
2026-05-08 01:29 39.19828 -75.23020 35525 ft 377 kts 230°
2026-05-08 01:30 39.17883 -75.25300 35694 ft 377 kts 230°
2026-05-08 01:30 39.15948 -75.27566 35846 ft 378 kts 230°
2026-05-08 01:30 39.13996 -75.29851 35872 ft 378 kts 230°
2026-05-08 01:31 39.10106 -75.34399 35883 ft 377 kts 230°